カタログに戻る

THORAD AGENA D DEB

運用中SSO
NORAD 4766·DEBRIS·🇺🇸 United States

打ち上げ Apr 8, 1970 から Vandenberg Space Force Base

Loading…

次のパス (今後24時間)

TLE

最新Source: Space-Track

元期: Sep 14, 2026, 09:48 UTC

1 04766U 70025DL  26257.40873417  .00000021  00000-0  97730-4 0  9996
2 04766 100.1470  53.2213 0009778 129.7925 259.6359 13.55960558788728

AllMySatでTHORAD AGENA D DEBをリアルタイム追跡

Download on the App Store